Regional Weather Roundup
Issued by NWS

Home | Current Version | Previous Version | Text Only | Print | Product List | Glossary Off
Versions: 1 2 3 4 5 6 7 8 9 10 11 12 13 14 15 16 17 18 19 20 21 22 23 24 25 26 27 28 29 30 31 32 33 34 35 36 37 38 39 40 41 42 43 44 45 46 47 48 49 50

600
ASUS43 KLMK 101510
RWRKY
KENTUCKY REGIONAL WEATHER ROUNDUP
NATIONAL WEATHER SERVICE LOUISVILLE KY
1000 AM EST WED FEB 10 2016

NOTE "FAIR" INDICATES FEW OR NO CLOUDS BELOW 12,000 FEET
WITH NO SIGNIFICANT WEATHER AND/OR OBSTRUCTIONS TO VISIBILITY.

KYZ001>023-026-027-061>063-070>075-101600-
WESTERN AND SOUTH CENTRAL KENTUCKY

CITY           SKY/WX    TMP DP  RH WIND       PRES   REMARKS
PADUCAH        SUNNY     21   9  59 W13       30.23R WCI   9
HENDERSON      MOSUNNY   18   7  62 W14       30.19R WCI   4
OWENSBORO      PTSUNNY   16   6  64 NW9G16    30.19R WCI   5
HOPKINSVILLE   SUNNY     17   8  67 W7        30.20R WCI   8
BOWLING GREEN  CLOUDY    18   9  68 W13       30.18R WCI   5
GLASGOW        CLOUDY    17   8  70 W10       30.14S WCI   4
$$

KYZ024-025-028>034-038-045-046-053-101600-
NORTH CENTRAL KENTUCKY

CITY           SKY/WX    TMP DP  RH WIND       PRES   REMARKS
LOUISVILLE/SDF FLURRIES  17   7  64 W13       30.10R WCI   4
LOUISVILLE/LOU PTSUNNY   16   6  65 W16       30.10R WCI   1
FORT KNOX      CLOUDY    15   4  60 W9G20     30.09R WCI   3
$$

KYZ035>037-039>044-047>052-055>060-089>105-101600-
NORTHEAST KENTUCKY

CITY           SKY/WX    TMP DP  RH WIND       PRES   REMARKS
LEXINGTON      CLOUDY    17   8  67 W14       30.03S WCI   3
COVINGTON      FLURRIES  15   7  70 W12G20    30.00R WCI   2
FRANKFORT      CLOUDY    17   7  64 W12       30.04R WCI   4
$$

KYZ054-064>069-076>088-106>120-101600-
SOUTHEAST KENTUCKY

CITY           SKY/WX    TMP DP  RH WIND       PRES   REMARKS
JACKSON        LGT SNOW  18  11  74 VRB5      29.99R WCI  11
LONDON         CLOUDY    17   7  64 W14       30.04R WCI   3
SOMERSET       CLOUDY    18  10  73 W10G17    30.10R WCI   6
MIDDLESBORO    CLOUDY    20  11  68 W5        30.05S WCI  13
MONTICELLO     FLURRIES  18   9  68 W21G30    30.11R WCI   1
$$





USA.gov is the U.S. government's official web portal to all federal, state and local government web resources and services.